Regional Weather Roundup
Issued by NWS

Home | Current Version | Previous Version | Graphics & Text | Print | Product List | Glossary On
Versions: 1 2 3 4 5 6 7 8 9 10 11 12 13 14 15 16 17 18 19 20 21 22 23 24 25 26 27 28 29 30 31 32 33 34 35 36 37 38 39 40 41 42 43 44 45 46 47 48 49 50
000
ASUS43 KTOP 011908
RWRKS

WEATHER ROUNDUP FOR KANSAS
NATIONAL WEATHER SERVICE GOODLAND KS
200 PM CDT SUN MAY 01 2016

NOTE:  "FAIR" INDICATES FEW OR NO CLOUDS BELOW 12,000 FEET WITH NO
SIGNIFICANT WEATHER AND/OR OBSTRUCTIONS TO VISIBILITY.

KSZ001>006-013>018-027>032-041>047-012000-
NORTHWEST KANSAS

CITY           SKY/WX    TMP DP  RH WIND       PRES   REMARKS
GOODLAND       CLOUDY    50  33  52 N29       30.18F
HAYS           CLOUDY    50  34  53 N23G30    30.15F
HILL CITY      CLOUDY    49  39  68 N17G28    30.18F
RUSSELL        CLOUDY    49  39  68 N21G29    30.13F
$$

KSZ061>065-074>080-084>089-012000-
SOUTHWEST KANSAS

CITY           SKY/WX    TMP DP  RH WIND       PRES   REMARKS
DODGE CITY     CLOUDY    46  37  71 N22       30.15F
ELKHART          N/A     42  33  70 N15         N/A
GARDEN CITY    CLOUDY    44  36  73 N22       30.18F
GREAT BEND     CLOUDY    48  36  61 N17       30.15S
LIBERAL        CLOUDY    45  34  65 N21       30.22R
PRATT          CLOUDY    47  38  73 N17       30.13F
$$

KSZ066>073-081>083-090>101-012000-
SOUTHEAST KANSAS

CITY           SKY/WX    TMP DP  RH WIND       PRES   REMARKS
CHANUTE        PTSUNNY   61  45  55 W16       30.05S
COFFEYVILLE    MOSUNNY   64  45  49 NW12G22   30.06F
HUTCHINSON     CLOUDY    53  42  66 NW14      30.12R
MEDICINE LODGE   N/A     53  41  63 N14G24    30.11F
NEWTON         CLOUDY    52  39  62 N16       30.11S
PARSONS        MOSUNNY   62  45  53 NW14      30.07S
WICHITA INTL   CLOUDY    55  43  63 NW17      30.10S
WICHITA JABRA  CLOUDY    53  44  71 NW20      30.10S
WICHITA MCCONL PTSUNNY   53  44  69 N14       30.10R
WINFIELD       PTSUNNY   60  46  59 NW20G25   30.09F
$$

KSZ007>012-019>026-033>040-048>060-102>105-012000-
NORTHEAST KANSAS

CITY           SKY/WX    TMP DP  RH WIND       PRES   REMARKS
CONCORDIA      CLOUDY    50  41  71 N21G28    30.10F
EMPORIA        CLOUDY    55  46  71 NW15G22   30.05S
LAWRENCE       CLOUDY    59  45  59 NW14      30.03R
MANHATTAN      CLOUDY    56  45  66 N9G18     30.08R
MARYSVILLE     CLOUDY    48  43  81 N13       30.09S
OLATHE IND     CLOUDY    59  44  57 NW10      30.03R
OLATHE EXE     CLOUDY    58  42  55 W12       30.02R
SALINA         CLOUDY    52  43  71 N20       30.12S
TOPEKA BILLARD CLOUDY    58  45  62 NW10      30.03S
TOPEKA FORBES  PTSUNNY   61  45  55 NW15      30.03R
$$




USA.gov is the U.S. government's official web portal to all federal, state and local government web resources and services.